Погода в Сене-Годане

Франция     43°06′34″N   0°43′37″E
темп.,
°C
ветер,
м/с
пор.,
м/с
влажн.,
%
обл.,
%
осадки,
мм/ч
давл.,
гПа
погр.,
м
11 мая, вт
вт1123:00+7ю22930 1.6 100929
02:00+6ююз339278 2.6 101047
05:00+5з369783 1.0 1012389
08:00+5зсз3797100 1.8 1015814
11:00+4з2697100 3.3 1018813
14:00+7з258097 5.1 1019907
17:00+9сз467171 0.9 10191341
20:00+7зсз248214 1.3 1020415
12 мая, ср
ср1223:00+4ю33918 0.0 102245
02:00+3ю338555 0.0 102046
05:00+3ю337764 0.0 101838
08:00+6ю237095 0.0 101672
11:00+13ссв224362 0.0 10121140
14:00+13с224696 0.0 10131645
17:00+14ссв224970 0.1 10131515
20:00+7з299493 3.1 1018712
13 мая, чт
чт1323:00+5ююз229599 0.1 102038
02:00+6зсз2595100 0.3 1019405
05:00+4юз119758 0.3 101945
08:00+4ююз229318 0.3 101890
11:00+10сз125125 0.0 10161254
14:00+14с3436100 0.0 10111622
17:00+13ссв3247100 0.0 10091600
20:00+7ссз2390100 0.9 1011325
14 мая, пт
пт1423:00+6св119898 1.0 101283
02:00+5ююв119787 1.0 101122
05:00+6ю1191100 0.0 101021
08:00+6сз1293100 0.0 101188
11:00+5зсз2598100 3.1 1014554
14:00+5з3498100 10.3 1017700
17:00+8зюз2485100 2.2 1017684
20:00+7з269315 4.1 1019487
15 мая, сб
сб1523:00+3ююз339543 0.0 102246
02:00+2ююз33937 0.0 102344
05:00+1ююз339248 0.0 102342
08:00+3ю238687 0.0 102264
11:00+12с1144100 0.0 1020712
14:00+12ссв2253100 0.0 1017315
17:00
20:00+9ю2292100 1.0 101934